Location: Unspecified
(44.4377°N, 88.0525°W)
Time: 17:50:55
(UTC-05:00)

Okean 3 - Pass Details

Date: 23 April 2019
Orbit: 576 x 602 km, 82.5° (Epoch: 20 May)

Event Time Altitude Azimuth Distance (km) Brightness Sun altitude
Exits shadow 02:48:20 17° 317° (NW) 1,516 5.7 -27.1°
Drops below altitude 10° 02:50:00 10° 338° (NNW) 1,922 6.5 -27.0°
Sets 02:52:40 0° 355° (N) 2,823 7.7 -26.7°
